Hourly Data Report for October 28, 2019

All times are specified in Local Standard Time (LST). Add 1 hour to adjust for Daylight Saving Time where and when it is observed.

WOODSTOCK NEWBRIDGE
NEW BRUNSWICK
Current Station Operator: ECCC - MSC

46°09'08.000" N
67°32'34.000" W
154.00 m
8105603
71606
EWD

Download Data

Hourly Data (October 2019)
Hourly Data Report for October 28, 2019
TIME Temp Definition
°C
Dew Point Definition
°C
Rel Hum Definition
%
Wind Dir Definition
10's deg

Wind Spd Definition
km/h
Visibility Definition
km
Stn Press Definition
kPa
Hmdx Definition


Wind Chill Definition


Weather Definition


00:00 2.7 2.1 96 8 11   100.00     LegendNANA
01:00 3.0 2.4 96 9 9   100.00     LegendNANA
02:00 3.2 2.6 96 8 8   100.04     LegendNANA
03:00 3.4 2.7 95 9 7   100.07     LegendNANA
04:00 3.3 2.7 96 9 6   100.12     LegendNANA
05:00 3.3 2.6 95 7 5   100.21     LegendNANA
06:00 2.8 2.2 96 6 5   100.29     LegendNANA
07:00 2.6 2.0 96 7 5   100.37     LegendNANA
08:00 2.8 2.2 96 10 4   100.47     LegendNANA
09:00 4.0 3.2 95 9 5   100.54     LegendNANA
10:00 5.0 3.5 91 10 6   100.59     LegendNANA
11:00 6.0 4.1 88 12 7   100.63     LegendNANA
12:00 6.7 3.6 81 12 9   100.65     LegendNANA
13:00 7.8 3.9 76 12 9   100.62     LegendNANA
14:00 7.7 3.7 76 13 5   100.64     LegendNANA
15:00 8.0 4.4 78 13 4   100.67     LegendNANA
16:00 7.9 4.4 78 12 4   100.73     LegendNANA
17:00 7.6 4.6 81 13 3   100.77     LegendNANA
18:00 7.2 4.7 84 13 2   100.84     LegendNANA
19:00 6.8 4.7 87 13 3   100.87     LegendNANA
20:00 6.8 4.6 86 14 3   100.91     LegendNANA
21:00 6.7 4.6 86 14 3   100.95     LegendNANA
22:00 6.6 4.6 87 14 3   100.98     LegendNANA
23:00 6.5 4.9 90 13 5   100.97     LegendNANA

Notes on Data Quality.

Legend

  • E = Estimated
  • M = Missing
  • NA = Not Available
Date modified: